Time,TemperatureF,DewpointF,PressureIn,WindDirection,WindDirectionDegrees,WindSpeedMPH,WindSpeedGustMPH,Humidity,HourlyPrecipIn,Conditions,Clouds,dailyrainin,SoftwareType,DateUTC
2013-07-14 00:00:00,68.7,65.3,27.55,SE,125,4.8,11.0,88,0.00,--,--,0.00,awk and wget,2013-07-14 04:00:00,
2013-07-14 00:05:00,68.3,65.0,27.55,ESE,114,4.5,11.0,89,0.00,--,--,0.00,awk and wget,2013-07-14 04:05:00,
2013-07-14 00:10:00,68.5,65.2,27.55,SSE,154,3.3,11.0,89,0.00,--,--,0.00,awk and wget,2013-07-14 04:10:00,
2013-07-14 00:15:00,69.2,65.0,27.56,NNW,329,9.1,12.3,86,0.00,--,--,0.00,awk and wget,2013-07-14 04:15:00,
2013-07-14 00:20:00,69.1,65.2,27.56,NNW,347,7.1,12.3,87,0.00,--,--,0.00,awk and wget,2013-07-14 04:20:00,
2013-07-14 00:30:00,69.7,65.0,27.56,SE,139,4.3,10.5,85,0.00,--,--,0.00,awk and wget,2013-07-14 04:30:00,
2013-07-14 00:35:00,69.4,65.1,27.56,NNW,331,7.5,11.6,86,0.00,--,--,0.00,awk and wget,2013-07-14 04:35:00,
2013-07-14 00:40:00,69.9,65.0,27.56,SSE,148,5.9,13.2,84,0.00,--,--,0.00,awk and wget,2013-07-14 04:40:00,
2013-07-14 00:45:00,69.5,65.0,27.56,SE,126,6.9,13.2,85,0.00,--,--,0.00,awk and wget,2013-07-14 04:45:00,
2013-07-14 00:50:00,69.2,65.2,27.56,ESE,107,6.6,13.2,87,0.00,--,--,0.00,awk and wget,2013-07-14 04:50:00,
2013-07-14 00:55:00,69.4,65.1,27.56,SSE,147,3.0,13.2,86,0.00,--,--,0.00,awk and wget,2013-07-14 04:55:00,
2013-07-14 01:00:00,69.2,65.2,27.56,East,82,6.3,14.9,86,0.00,--,--,0.00,awk and wget,2013-07-14 05:00:00,
2013-07-14 01:10:00,69.0,64.7,27.55,ESE,115,9.4,14.9,86,0.00,--,--,0.00,awk and wget,2013-07-14 05:10:00,
2013-07-14 01:15:00,68.9,64.5,27.56,East,83,7.0,14.9,86,0.00,--,--,0.00,awk and wget,2013-07-14 05:15:00,
2013-07-14 01:20:00,68.9,64.3,27.56,NNW,331,6.0,11.9,85,0.00,--,--,0.00,awk and wget,2013-07-14 05:20:00,
2013-07-14 01:25:00,69.0,64.0,27.56,SE,133,5.2,10.8,84,0.00,--,--,0.00,awk and wget,2013-07-14 05:25:00,
2013-07-14 01:30:00,68.1,64.2,27.56,NNW,327,2.7,10.8,87,0.00,--,--,0.00,awk and wget,2013-07-14 05:30:00,
2013-07-14 01:40:00,67.4,64.2,27.56,NNW,348,5.2,12.4,89,0.00,--,--,0.00,awk and wget,2013-07-14 05:40:00,
2013-07-14 01:45:00,67.9,64.3,27.56,SSE,154,7.2,12.4,88,0.00,--,--,0.00,awk and wget,2013-07-14 05:45:00,
2013-07-14 01:50:00,68.5,63.7,27.56,NW,326,4.2,12.4,84,0.00,--,--,0.00,awk and wget,2013-07-14 05:50:00,
2013-07-14 01:55:00,67.1,64.2,27.57,NNW,328,1.9,8.6,90,0.00,--,--,0.00,awk and wget,2013-07-14 05:55:00,
2013-07-14 02:00:00,67.2,64.5,27.56,NNW,327,1.1,6.7,91,0.00,--,--,0.00,awk and wget,2013-07-14 06:00:00,
2013-07-14 02:05:00,67.3,64.6,27.57,East,86,5.6,6.7,91,0.00,--,--,0.00,awk and wget,2013-07-14 06:05:00,
2013-07-14 02:10:00,67.6,64.7,27.57,NNW,327,2.1,10.9,90,0.00,--,--,0.00,awk and wget,2013-07-14 06:10:00,
2013-07-14 02:15:00,66.9,64.4,27.57,NNW,330,1.9,10.9,91,0.00,--,--,0.00,awk and wget,2013-07-14 06:15:00,
2013-07-14 02:20:00,66.6,64.5,27.57,NNW,330,0.8,10.9,92,0.00,--,--,0.00,awk and wget,2013-07-14 06:20:00,
2013-07-14 02:25:00,66.6,64.6,27.57,East,85,1.5,10.8,93,0.00,--,--,0.00,awk and wget,2013-07-14 06:25:00,
2013-07-14 02:30:00,66.6,64.5,27.57,North,8,0.8,8.3,93,0.00,--,--,0.00,awk and wget,2013-07-14 06:30:00,
2013-07-14 02:35:00,66.3,64.4,27.57,East,96,0.8,7.7,93,0.00,--,--,0.00,awk and wget,2013-07-14 06:35:00,
2013-07-14 02:40:00,66.0,64.3,27.57,NNW,329,1.4,11.7,94,0.00,--,--,0.00,awk and wget,2013-07-14 06:40:00,
2013-07-14 02:45:00,66.3,64.7,27.57,NE,49,1.4,11.7,94,0.00,--,--,0.00,awk and wget,2013-07-14 06:45:00,
2013-07-14 02:50:00,66.0,64.3,27.57,NNW,331,5.8,11.7,94,0.00,--,--,0.00,awk and wget,2013-07-14 06:50:00,
2013-07-14 02:55:00,66.9,64.8,27.57,NNW,332,4.7,6.9,92,0.00,--,--,0.00,awk and wget,2013-07-14 06:55:00,
2013-07-14 03:00:00,66.6,64.6,27.57,ESE,119,8.3,8.3,93,0.00,--,--,0.00,awk and wget,2013-07-14 07:00:00,
2013-07-14 03:05:00,66.9,64.7,27.57,SE,130,6.8,10.8,92,0.00,--,--,0.00,awk and wget,2013-07-14 07:05:00,
2013-07-14 03:10:00,68.6,64.3,27.57,SE,144,3.2,10.8,86,0.00,--,--,0.00,awk and wget,2013-07-14 07:10:00,
2013-07-14 03:15:00,69.2,63.3,27.57,NNW,339,5.2,10.8,81,0.00,--,--,0.00,awk and wget,2013-07-14 07:15:00,
2013-07-14 03:20:00,69.5,63.0,27.57,ESE,118,6.6,13.2,79,0.00,--,--,0.00,awk and wget,2013-07-14 07:20:00,
2013-07-14 03:25:00,69.3,63.1,27.57,ESE,121,8.0,13.2,80,0.00,--,--,0.00,awk and wget,2013-07-14 07:25:00,
2013-07-14 03:30:00,69.4,62.7,27.57,ESE,121,12.7,15.9,79,0.00,--,--,0.00,awk and wget,2013-07-14 07:30:00,
2013-07-14 03:40:00,69.1,62.3,27.57,NE,54,1.7,15.9,78,0.00,--,--,0.00,awk and wget,2013-07-14 07:40:00,
2013-07-14 03:45:00,68.9,62.4,27.57,SSE,150,6.9,15.0,79,0.00,--,--,0.00,awk and wget,2013-07-14 07:45:00,
2013-07-14 03:50:00,68.8,62.3,27.57,ESE,104,6.9,10.6,79,0.00,--,--,0.00,awk and wget,2013-07-14 07:50:00,
2013-07-14 04:00:00,68.5,62.4,27.57,NNW,331,1.5,10.5,80,0.00,--,--,0.00,awk and wget,2013-07-14 08:00:00,
2013-07-14 04:05:00,68.8,62.3,27.57,East,83,5.0,10.5,79,0.00,--,--,0.00,awk and wget,2013-07-14 08:05:00,
2013-07-14 04:10:00,68.8,62.2,27.57,NNW,329,2.9,10.5,79,0.00,--,--,0.00,awk and wget,2013-07-14 08:10:00,
2013-07-14 04:15:00,68.4,62.3,27.57,NNW,327,2.4,11.0,80,0.00,--,--,0.00,awk and wget,2013-07-14 08:15:00,
2013-07-14 04:20:00,67.6,62.3,27.57,East,85,8.4,12.0,83,0.00,--,--,0.00,awk and wget,2013-07-14 08:20:00,
2013-07-14 04:30:00,68.5,61.8,27.57,ESE,120,3.0,12.0,79,0.00,--,--,0.00,awk and wget,2013-07-14 08:30:00,
2013-07-14 04:35:00,68.6,61.9,27.57,NNW,329,2.5,8.9,79,0.00,--,--,0.00,awk and wget,2013-07-14 08:35:00,
2013-07-14 04:40:00,68.3,61.9,27.58,ESE,120,2.2,8.3,79,0.00,--,--,0.00,awk and wget,2013-07-14 08:40:00,
2013-07-14 04:45:00,67.9,61.8,27.58,NNW,331,3.3,9.9,81,0.00,--,--,0.00,awk and wget,2013-07-14 08:45:00,
2013-07-14 04:50:00,68.6,61.7,27.58,NNW,327,3.6,11.7,78,0.00,--,--,0.00,awk and wget,2013-07-14 08:50:00,
2013-07-14 05:00:00,68.7,61.8,27.58,NNW,330,2.0,13.4,78,0.00,--,--,0.00,awk and wget,2013-07-14 09:00:00,
2013-07-14 05:05:00,68.7,61.9,27.58,NNW,330,5.6,13.4,78,0.00,--,--,0.00,awk and wget,2013-07-14 09:05:00,
2013-07-14 05:10:00,68.6,61.9,27.58,NNW,330,3.1,13.4,79,0.00,--,--,0.00,awk and wget,2013-07-14 09:10:00,
2013-07-14 05:15:00,68.4,61.7,27.59,NNW,331,1.6,12.6,79,0.00,--,--,0.00,awk and wget,2013-07-14 09:15:00,
2013-07-14 05:20:00,68.8,61.1,27.59,North,350,4.3,12.6,76,0.00,--,--,0.00,awk and wget,2013-07-14 09:20:00,
2013-07-14 05:30:00,68.7,60.8,27.58,SE,136,11.3,18.3,76,0.00,--,--,0.00,awk and wget,2013-07-14 09:30:00,
2013-07-14 05:35:00,68.8,60.8,27.58,SE,146,6.3,18.3,75,0.00,--,--,0.00,awk and wget,2013-07-14 09:35:00,
2013-07-14 05:40:00,68.8,60.6,27.58,SE,125,5.9,18.3,75,0.00,--,--,0.00,awk and wget,2013-07-14 09:40:00,
2013-07-14 05:50:00,68.3,60.8,27.58,SSE,149,4.7,18.3,76,0.00,--,--,0.00,awk and wget,2013-07-14 09:50:00,
2013-07-14 05:55:00,68.6,60.9,27.58,NE,43,10.7,17.5,76,0.00,--,--,0.00,awk and wget,2013-07-14 09:55:00,
2013-07-14 06:00:00,68.5,60.9,27.59,North,357,11.0,17.5,76,0.00,--,--,0.00,awk and wget,2013-07-14 10:00:00,
2013-07-14 06:05:00,68.5,61.2,27.59,NNW,328,17.7,17.7,77,0.00,--,--,0.00,awk and wget,2013-07-14 10:05:00,
2013-07-14 06:10:00,68.6,61.1,27.59,NNW,345,9.7,18.5,77,0.00,--,--,0.00,awk and wget,2013-07-14 10:10:00,
2013-07-14 06:15:00,68.6,61.1,27.59,East,92,7.2,22.6,76,0.00,--,--,0.00,awk and wget,2013-07-14 10:15:00,
2013-07-14 06:20:00,68.5,61.1,27.59,East,99,7.5,22.6,77,0.00,--,--,0.00,awk and wget,2013-07-14 10:20:00,
2013-07-14 06:30:00,68.5,61.2,27.59,SE,126,4.5,19.7,77,0.00,--,--,0.00,awk and wget,2013-07-14 10:30:00,
2013-07-14 06:35:00,68.5,61.3,27.59,NNW,332,2.9,19.7,77,0.00,--,--,0.00,awk and wget,2013-07-14 10:35:00,
2013-07-14 06:40:00,68.3,61.5,27.60,SE,134,6.0,19.7,78,0.00,--,--,0.00,awk and wget,2013-07-14 10:40:00,
2013-07-14 06:45:00,68.4,61.5,27.60,NNE,27,12.9,18.1,78,0.00,--,--,0.00,awk and wget,2013-07-14 10:45:00,
2013-07-14 06:50:00,68.3,61.7,27.60,NNW,330,6.6,18.1,79,0.00,--,--,0.00,awk and wget,2013-07-14 10:50:00,
2013-07-14 06:55:00,68.4,61.7,27.60,NNW,331,4.3,17.9,79,0.00,--,--,0.00,awk and wget,2013-07-14 10:55:00,
2013-07-14 07:00:00,68.4,61.7,27.60,ESE,120,4.3,17.9,79,0.00,--,--,0.00,awk and wget,2013-07-14 11:00:00,
2013-07-14 07:05:00,68.6,61.3,27.60,North,1,6.1,15.9,77,0.00,--,--,0.00,awk and wget,2013-07-14 11:05:00,
2013-07-14 07:10:00,68.5,61.3,27.60,SE,141,7.3,16.9,77,0.00,--,--,0.00,awk and wget,2013-07-14 11:10:00,
2013-07-14 07:15:00,68.5,61.6,27.61,East,88,5.6,17.8,78,0.00,--,--,0.00,awk and wget,2013-07-14 11:15:00,
2013-07-14 07:20:00,68.6,61.2,27.61,ESE,112,8.4,17.8,77,0.00,--,--,0.00,awk and wget,2013-07-14 11:20:00,
2013-07-14 07:25:00,68.4,61.3,27.61,NNE,26,12.8,17.8,78,0.00,--,--,0.00,awk and wget,2013-07-14 11:25:00,
2013-07-14 07:30:00,68.3,61.2,27.61,SE,139,14.0,15.1,77,0.00,--,--,0.00,awk and wget,2013-07-14 11:30:00,
2013-07-14 07:35:00,68.7,61.3,27.61,SE,138,9.8,15.1,77,0.00,--,--,0.00,awk and wget,2013-07-14 11:35:00,
2013-07-14 07:40:00,68.7,61.9,27.61,NNW,331,3.4,14.0,79,0.00,--,--,0.00,awk and wget,2013-07-14 11:40:00,
2013-07-14 07:45:00,69.2,61.7,27.61,North,358,5.0,14.0,76,0.00,--,--,0.00,awk and wget,2013-07-14 11:45:00,
2013-07-14 07:50:00,69.1,61.5,27.61,NNW,328,5.3,13.5,76,0.00,--,--,0.00,awk and wget,2013-07-14 11:50:00,
2013-07-14 08:00:00,69.7,62.0,27.61,NNW,327,5.2,13.5,76,0.00,--,--,0.00,awk and wget,2013-07-14 12:00:00,
2013-07-14 08:05:00,70.0,62.1,27.61,NE,35,6.9,12.3,75,0.00,--,--,0.00,awk and wget,2013-07-14 12:05:00,
2013-07-14 08:10:00,70.1,61.8,27.62,ENE,69,10.8,12.5,74,0.00,--,--,0.00,awk and wget,2013-07-14 12:10:00,
2013-07-14 08:15:00,70.3,61.5,27.62,NW,326,7.2,17.4,73,0.00,--,--,0.00,awk and wget,2013-07-14 12:15:00,
2013-07-14 08:20:00,71.4,62.1,27.63,NNW,328,3.0,17.4,72,0.00,--,--,0.00,awk and wget,2013-07-14 12:20:00,
2013-07-14 08:25:00,70.5,62.2,27.63,NNW,330,8.7,17.4,74,0.00,--,--,0.00,awk and wget,2013-07-14 12:25:00,
2013-07-14 08:30:00,69.8,61.9,27.63,NNW,328,4.8,17.5,76,0.00,--,--,0.00,awk and wget,2013-07-14 12:30:00,
2013-07-14 08:35:00,70.1,61.9,27.63,NNW,327,3.8,17.5,75,0.00,--,--,0.00,awk and wget,2013-07-14 12:35:00,
2013-07-14 08:40:00,70.1,62.1,27.63,NNW,331,4.2,17.5,75,0.00,--,--,0.00,awk and wget,2013-07-14 12:40:00,
2013-07-14 08:45:00,69.9,61.4,27.63,NNW,330,8.9,14.9,74,0.00,--,--,0.00,awk and wget,2013-07-14 12:45:00,
2013-07-14 08:50:00,70.5,61.9,27.63,NW,326,8.8,20.3,74,0.00,--,--,0.00,awk and wget,2013-07-14 12:50:00,
2013-07-14 08:55:00,70.2,61.7,27.63,SSE,147,7.7,21.3,74,0.00,--,--,0.00,awk and wget,2013-07-14 12:55:00,
2013-07-14 09:00:00,70.7,62.0,27.64,NNW,327,5.0,21.3,73,0.00,--,--,0.00,awk and wget,2013-07-14 13:00:00,
2013-07-14 09:05:00,70.6,61.9,27.64,NNW,329,8.0,21.3,74,0.00,--,--,0.00,awk and wget,2013-07-14 13:05:00,
2013-07-14 09:10:00,70.8,61.7,27.64,NNW,330,6.1,20.7,72,0.00,--,--,0.00,awk and wget,2013-07-14 13:10:00,
2013-07-14 09:20:00,71.0,62.2,27.64,NNW,328,6.8,16.4,73,0.00,--,--,0.00,awk and wget,2013-07-14 13:20:00,
2013-07-14 09:30:00,72.3,63.1,27.64,NNW,327,1.7,25.1,72,0.00,--,--,0.00,awk and wget,2013-07-14 13:30:00,
2013-07-14 09:35:00,71.5,62.2,27.64,NW,326,9.7,25.1,72,0.00,--,--,0.00,awk and wget,2013-07-14 13:35:00,
2013-07-14 09:40:00,72.0,62.3,27.64,SSE,148,8.4,25.1,71,0.00,--,--,0.00,awk and wget,2013-07-14 13:40:00,
2013-07-14 09:45:00,72.5,62.5,27.64,ESE,122,9.4,21.7,70,0.00,--,--,0.00,awk and wget,2013-07-14 13:45:00,
2013-07-14 09:50:00,71.8,62.0,27.64,NW,326,4.7,20.0,71,0.00,--,--,0.00,awk and wget,2013-07-14 13:50:00,
2013-07-14 09:55:00,71.6,62.1,27.64,NNW,329,13.6,22.3,72,0.00,--,--,0.00,awk and wget,2013-07-14 13:55:00,
2013-07-14 10:00:00,71.5,62.1,27.64,NNW,340,6.9,22.8,72,0.00,--,--,0.00,awk and wget,2013-07-14 14:00:00,
2013-07-14 10:10:00,71.7,62.1,27.64,North,353,4.7,37.9,71,0.00,--,--,0.00,awk and wget,2013-07-14 14:10:00,
2013-07-14 10:15:00,72.9,62.6,27.64,SSE,153,9.0,37.9,70,0.00,--,--,0.00,awk and wget,2013-07-14 14:15:00,
2013-07-14 10:20:00,73.4,62.8,27.64,NE,36,10.0,22.1,69,0.00,--,--,0.00,awk and wget,2013-07-14 14:20:00,
2013-07-14 10:30:00,72.8,62.1,27.65,NNW,327,11.9,20.5,69,0.00,--,--,0.00,awk and wget,2013-07-14 14:30:00,
2013-07-14 10:35:00,73.3,62.2,27.64,NNW,327,3.3,20.5,68,0.00,--,--,0.00,awk and wget,2013-07-14 14:35:00,
2013-07-14 10:40:00,73.2,62.6,27.65,NNW,328,8.1,18.1,69,0.00,--,--,0.00,awk and wget,2013-07-14 14:40:00,
2013-07-14 10:45:00,74.2,62.9,27.65,SE,144,4.0,23.1,67,0.00,--,--,0.00,awk and wget,2013-07-14 14:45:00,
2013-07-14 10:50:00,74.0,62.2,27.65,NW,324,9.5,23.1,66,0.00,--,--,0.00,awk and wget,2013-07-14 14:50:00,
2013-07-14 10:55:00,73.8,62.4,27.65,NNW,327,8.0,23.1,67,0.00,--,--,0.00,awk and wget,2013-07-14 14:55:00,
2013-07-14 11:00:00,73.9,62.2,27.65,NW,324,7.9,20.0,66,0.00,--,--,0.00,awk and wget,2013-07-14 15:00:00,
2013-07-14 11:05:00,74.0,62.8,27.65,NNW,327,4.7,20.0,68,0.00,--,--,0.00,awk and wget,2013-07-14 15:05:00,
2013-07-14 11:10:00,74.5,63.0,27.65,NNW,328,6.4,20.0,67,0.00,--,--,0.00,awk and wget,2013-07-14 15:10:00,
2013-07-14 11:15:00,75.3,62.8,27.65,SE,132,6.2,19.6,65,0.00,--,--,0.00,awk and wget,2013-07-14 15:15:00,
2013-07-14 11:20:00,74.5,61.7,27.65,NNW,327,12.1,20.8,64,0.00,--,--,0.00,awk and wget,2013-07-14 15:20:00,
2013-07-14 11:30:00,74.9,62.7,27.65,NW,324,13.8,25.9,65,0.00,--,--,0.00,awk and wget,2013-07-14 15:30:00,
2013-07-14 11:35:00,76.1,63.2,27.65,NW,324,5.4,25.9,64,0.00,--,--,0.00,awk and wget,2013-07-14 15:35:00,
2013-07-14 11:40:00,75.8,63.5,27.65,SSE,147,6.2,25.9,65,0.00,--,--,0.00,awk and wget,2013-07-14 15:40:00,
2013-07-14 11:45:00,77.2,62.5,27.65,NNW,328,5.7,23.8,60,0.00,--,--,0.00,awk and wget,2013-07-14 15:45:00,
2013-07-14 11:50:00,76.6,63.6,27.65,NW,326,9.8,23.8,64,0.00,--,--,0.00,awk and wget,2013-07-14 15:50:00,
2013-07-14 12:00:00,76.3,63.3,27.65,ESE,105,8.0,22.0,64,0.00,--,--,0.00,awk and wget,2013-07-14 16:00:00,
2013-07-14 12:05:00,75.9,63.3,27.65,NW,325,6.1,22.0,64,0.00,--,--,0.00,awk and wget,2013-07-14 16:05:00,
2013-07-14 12:10:00,75.3,62.0,27.65,SE,136,13.4,22.0,63,0.00,--,--,0.00,awk and wget,2013-07-14 16:10:00,
2013-07-14 12:15:00,75.6,62.2,27.65,NW,324,15.2,18.0,63,0.00,--,--,0.00,awk and wget,2013-07-14 16:15:00,
2013-07-14 12:20:00,75.7,61.9,27.65,NW,325,8.0,18.0,62,0.00,--,--,0.00,awk and wget,2013-07-14 16:20:00,
2013-07-14 12:30:00,76.5,62.7,27.65,ESE,117,9.3,33.2,62,0.00,--,--,0.00,awk and wget,2013-07-14 16:30:00,
2013-07-14 12:35:00,77.8,64.7,27.64,SE,141,5.0,33.2,64,0.00,--,--,0.00,awk and wget,2013-07-14 16:35:00,
2013-07-14 12:40:00,76.3,62.2,27.65,NNW,327,9.0,33.2,61,0.00,--,--,0.00,awk and wget,2013-07-14 16:40:00,
2013-07-14 12:45:00,76.4,63.3,27.65,NW,323,9.2,17.8,63,0.00,--,--,0.00,awk and wget,2013-07-14 16:45:00,
2013-07-14 12:50:00,77.4,62.9,27.65,ENE,62,1.8,17.8,61,0.00,--,--,0.00,awk and wget,2013-07-14 16:50:00,
2013-07-14 13:00:00,77.0,62.4,27.65,NW,324,9.4,20.2,60,0.00,--,--,0.00,awk and wget,2013-07-14 17:00:00,
2013-07-14 13:05:00,79.0,63.0,27.65,SE,145,6.7,26.7,58,0.00,--,--,0.00,awk and wget,2013-07-14 17:05:00,
2013-07-14 13:10:00,78.1,62.7,27.65,NW,326,9.5,26.7,59,0.00,--,--,0.00,awk and wget,2013-07-14 17:10:00,
2013-07-14 13:20:00,77.7,63.9,27.64,NW,322,2.5,18.9,62,0.00,--,--,0.00,awk and wget,2013-07-14 17:20:00,
2013-07-14 13:25:00,76.8,62.8,27.64,SSE,156,6.7,20.4,62,0.00,--,--,0.00,awk and wget,2013-07-14 17:25:00,
2013-07-14 13:30:00,77.1,62.4,27.64,NW,323,6.9,20.4,60,0.00,--,--,0.00,awk and wget,2013-07-14 17:30:00,
2013-07-14 13:40:00,76.8,61.7,27.65,SSE,154,9.5,17.9,59,0.00,--,--,0.00,awk and wget,2013-07-14 17:40:00,
2013-07-14 13:45:00,76.5,62.1,27.65,SSE,148,12.6,17.9,61,0.00,--,--,0.00,awk and wget,2013-07-14 17:45:00,
2013-07-14 13:50:00,76.4,62.6,27.65,NW,326,7.3,18.0,62,0.00,--,--,0.00,awk and wget,2013-07-14 17:50:00,
2013-07-14 14:00:00,77.4,62.6,27.64,NW,324,5.6,18.8,60,0.00,--,--,0.00,awk and wget,2013-07-14 18:00:00,
2013-07-14 14:05:00,77.6,62.3,27.64,NW,326,5.8,18.8,59,0.00,--,--,0.00,awk and wget,2013-07-14 18:05:00,
2013-07-14 14:10:00,78.6,64.8,27.64,NW,323,6.3,17.1,62,0.00,--,--,0.00,awk and wget,2013-07-14 18:10:00,
2013-07-14 14:15:00,78.7,63.5,27.64,NW,325,4.7,17.1,59,0.00,--,--,0.00,awk and wget,2013-07-14 18:15:00,
2013-07-14 14:20:00,79.2,62.5,27.64,NW,325,5.0,17.3,56,0.00,--,--,0.00,awk and wget,2013-07-14 18:20:00,
2013-07-14 14:30:00,79.2,64.9,27.64,NW,324,8.6,21.4,61,0.00,--,--,0.00,awk and wget,2013-07-14 18:30:00,
2013-07-14 14:35:00,77.9,63.9,27.64,NW,323,9.5,21.4,62,0.00,--,--,0.00,awk and wget,2013-07-14 18:35:00,
2013-07-14 14:40:00,79.2,64.1,27.64,NW,323,4.5,18.5,60,0.00,--,--,0.00,awk and wget,2013-07-14 18:40:00,
2013-07-14 14:45:00,78.8,64.3,27.63,NW,326,10.1,18.6,61,0.00,--,--,0.00,awk and wget,2013-07-14 18:45:00,
2013-07-14 14:50:00,79.4,64.8,27.63,ESE,103,9.5,18.6,60,0.00,--,--,0.00,awk and wget,2013-07-14 18:50:00,
2013-07-14 14:55:00,79.0,63.9,27.63,NNW,327,6.9,18.6,59,0.00,--,--,0.00,awk and wget,2013-07-14 18:55:00,
2013-07-14 15:00:00,77.6,62.6,27.63,NW,326,2.7,18.1,59,0.00,--,--,0.00,awk and wget,2013-07-14 19:00:00,
2013-07-14 15:10:00,78.4,63.5,27.63,NW,324,8.2,29.6,60,0.00,--,--,0.00,awk and wget,2013-07-14 19:10:00,
2013-07-14 15:15:00,79.4,62.8,27.63,NW,323,4.2,29.6,57,0.00,--,--,0.00,awk and wget,2013-07-14 19:15:00,
2013-07-14 15:20:00,80.0,64.4,27.63,NW,326,9.2,15.1,58,0.00,--,--,0.00,awk and wget,2013-07-14 19:20:00,
2013-07-14 15:30:00,78.1,64.1,27.63,NW,322,7.9,16.9,62,0.00,--,--,0.00,awk and wget,2013-07-14 19:30:00,
2013-07-14 15:35:00,78.5,63.9,27.63,NW,325,6.4,16.9,60,0.00,--,--,0.00,awk and wget,2013-07-14 19:35:00,
2013-07-14 15:40:00,79.9,62.9,27.62,NW,322,6.9,16.9,56,0.00,--,--,0.00,awk and wget,2013-07-14 19:40:00,
2013-07-14 15:45:00,78.8,62.6,27.62,ESE,118,4.0,16.2,57,0.00,--,--,0.00,awk and wget,2013-07-14 19:45:00,
2013-07-14 15:50:00,79.0,64.2,27.62,SE,128,4.0,13.8,60,0.00,--,--,0.00,awk and wget,2013-07-14 19:50:00,
2013-07-14 16:00:00,77.9,63.7,27.62,SE,135,8.5,14.0,61,0.00,--,--,0.00,awk and wget,2013-07-14 20:00:00,
2013-07-14 16:05:00,78.3,64.7,27.62,SE,134,3.9,14.5,63,0.00,--,--,0.00,awk and wget,2013-07-14 20:05:00,
2013-07-14 16:10:00,78.7,63.4,27.62,NW,324,4.4,14.5,59,0.00,--,--,0.00,awk and wget,2013-07-14 20:10:00,
2013-07-14 16:20:00,78.4,62.3,27.63,NW,324,7.2,14.2,57,0.00,--,--,0.00,awk and wget,2013-07-14 20:20:00,
2013-07-14 16:25:00,80.1,64.7,27.62,NW,325,3.4,13.9,59,0.00,--,--,0.00,awk and wget,2013-07-14 20:25:00,
2013-07-14 16:30:00,78.5,63.4,27.63,NNW,327,11.2,13.9,59,0.00,--,--,0.00,awk and wget,2013-07-14 20:30:00,
2013-07-14 16:35:00,78.0,63.4,27.63,NW,323,6.9,13.0,60,0.00,--,--,0.00,awk and wget,2013-07-14 20:35:00,
2013-07-14 16:40:00,77.6,63.9,27.63,SE,140,3.2,13.0,62,0.00,--,--,0.00,awk and wget,2013-07-14 20:40:00,
2013-07-14 16:50:00,77.7,62.7,27.63,SE,140,9.2,10.6,59,0.00,--,--,0.00,awk and wget,2013-07-14 20:50:00,
2013-07-14 17:00:00,77.6,63.3,27.63,NW,323,4.0,10.8,61,0.00,--,--,0.00,awk and wget,2013-07-14 21:00:00,
2013-07-14 17:05:00,77.6,63.3,27.63,SE,138,5.8,10.8,61,0.00,--,--,0.00,awk and wget,2013-07-14 21:05:00,
2013-07-14 17:10:00,77.7,63.7,27.63,NNW,328,5.6,9.8,62,0.00,--,--,0.00,awk and wget,2013-07-14 21:10:00,
2013-07-14 17:15:00,77.5,63.7,27.63,NNW,327,8.1,9.6,62,0.00,--,--,0.00,awk and wget,2013-07-14 21:15:00,
2013-07-14 17:20:00,77.4,63.6,27.62,NNW,327,6.4,11.0,62,0.00,--,--,0.00,awk and wget,2013-07-14 21:20:00,
2013-07-14 17:25:00,77.7,63.1,27.62,NW,326,8.9,13.0,60,0.00,--,--,0.00,awk and wget,2013-07-14 21:25:00,
2013-07-14 17:30:00,77.5,63.9,27.62,NW,325,5.7,13.0,62,0.00,--,--,0.00,awk and wget,2013-07-14 21:30:00,
2013-07-14 17:35:00,76.9,64.4,27.63,NW,322,4.0,13.0,65,0.00,--,--,0.00,awk and wget,2013-07-14 21:35:00,
2013-07-14 17:40:00,77.0,64.7,27.63,NW,325,5.4,13.0,65,0.00,--,--,0.00,awk and wget,2013-07-14 21:40:00,
2013-07-14 17:45:00,77.3,63.5,27.63,NNW,327,1.4,11.8,62,0.00,--,--,0.00,awk and wget,2013-07-14 21:45:00,
2013-07-14 17:50:00,78.1,63.7,27.62,NW,326,5.5,12.8,61,0.00,--,--,0.00,awk and wget,2013-07-14 21:50:00,
2013-07-14 17:55:00,78.6,63.5,27.62,NNE,32,6.1,12.8,59,0.00,--,--,0.00,awk and wget,2013-07-14 21:55:00,
2013-07-14 18:00:00,78.2,62.8,27.62,NNW,327,12.8,12.8,59,0.00,--,--,0.00,awk and wget,2013-07-14 22:00:00,
2013-07-14 18:05:00,78.1,62.9,27.62,SE,137,7.1,13.2,59,0.00,--,--,0.00,awk and wget,2013-07-14 22:05:00,
2013-07-14 18:10:00,77.7,63.9,27.62,SE,136,3.6,13.2,62,0.00,--,--,0.00,awk and wget,2013-07-14 22:10:00,
2013-07-14 18:15:00,78.4,64.5,27.62,ESE,118,6.2,13.2,62,0.00,--,--,0.00,awk and wget,2013-07-14 22:15:00,
2013-07-14 18:20:00,79.1,64.6,27.62,NNW,327,8.8,14.6,61,0.00,--,--,0.00,awk and wget,2013-07-14 22:20:00,
2013-07-14 18:25:00,78.7,63.8,27.62,NW,324,3.0,14.6,60,0.00,--,--,0.00,awk and wget,2013-07-14 22:25:00,
2013-07-14 18:30:00,77.9,64.6,27.62,SE,135,4.1,17.9,63,0.00,--,--,0.00,awk and wget,2013-07-14 22:30:00,
2013-07-14 18:35:00,77.8,64.6,27.62,SE,138,5.3,17.9,63,0.00,--,--,0.00,awk and wget,2013-07-14 22:35:00,
2013-07-14 18:40:00,77.6,64.1,27.62,NNW,327,4.5,17.9,63,0.00,--,--,0.00,awk and wget,2013-07-14 22:40:00,
2013-07-14 18:45:00,76.8,63.4,27.62,East,93,8.9,15.0,63,0.00,--,--,0.00,awk and wget,2013-07-14 22:45:00,
2013-07-14 18:50:00,76.3,63.3,27.62,NW,326,10.2,14.9,64,0.00,--,--,0.00,awk and wget,2013-07-14 22:50:00,
2013-07-14 18:55:00,76.2,63.6,27.62,NW,324,9.4,12.2,65,0.00,--,--,0.00,awk and wget,2013-07-14 22:55:00,
2013-07-14 19:00:00,76.6,63.7,27.62,NNW,327,7.7,12.0,64,0.00,--,--,0.00,awk and wget,2013-07-14 23:00:00,
2013-07-14 19:10:00,76.2,63.1,27.62,NW,325,5.8,9.4,63,0.00,--,--,0.00,awk and wget,2013-07-14 23:10:00,
2013-07-14 19:15:00,76.2,62.8,27.62,NW,324,0.9,9.4,63,0.00,--,--,0.00,awk and wget,2013-07-14 23:15:00,
2013-07-14 19:20:00,76.1,63.7,27.62,NW,325,4.4,9.3,65,0.00,--,--,0.00,awk and wget,2013-07-14 23:20:00,
2013-07-14 19:30:00,75.9,64.7,27.62,NW,323,2.5,7.4,68,0.00,--,--,0.00,awk and wget,2013-07-14 23:30:00,
2013-07-14 19:35:00,75.5,65.6,27.62,NW,326,2.2,7.4,71,0.00,--,--,0.00,awk and wget,2013-07-14 23:35:00,
2013-07-14 19:40:00,75.4,65.8,27.62,NW,324,0.3,6.7,72,0.00,--,--,0.00,awk and wget,2013-07-14 23:40:00,
2013-07-14 19:45:00,75.8,64.7,27.63,NW,323,4.0,6.0,68,0.00,--,--,0.00,awk and wget,2013-07-14 23:45:00,
2013-07-14 19:50:00,75.9,63.0,27.63,NW,325,6.5,6.5,64,0.00,--,--,0.00,awk and wget,2013-07-14 23:50:00,
2013-07-14 19:55:00,74.7,66.3,27.63,North,6,4.8,5.5,74,0.00,--,--,0.00,awk and wget,2013-07-14 23:55:00,
2013-07-14 20:00:00,72.6,66.2,27.63,NNW,327,3.1,5.5,80,0.00,--,--,0.00,awk and wget,2013-07-15 00:00:00,
2013-07-14 20:05:00,71.1,66.1,27.63,NW,325,1.4,5.3,84,0.00,--,--,0.00,awk and wget,2013-07-15 00:05:00,
2013-07-14 20:10:00,70.5,65.9,27.63,NW,323,0.7,6.1,85,0.00,--,--,0.00,awk and wget,2013-07-15 00:10:00,
2013-07-14 20:15:00,69.7,65.5,27.63,NNW,340,1.4,6.1,86,0.00,--,--,0.00,awk and wget,2013-07-15 00:15:00,
2013-07-14 20:20:00,69.4,65.6,27.63,NW,325,3.6,6.1,87,0.00,--,--,0.00,awk and wget,2013-07-15 00:20:00,
2013-07-14 20:30:00,68.7,65.0,27.64,NW,325,1.7,5.1,88,0.00,--,--,0.00,awk and wget,2013-07-15 00:30:00,
2013-07-14 20:35:00,68.3,64.5,27.64,NW,323,3.5,4.7,87,0.00,--,--,0.00,awk and wget,2013-07-15 00:35:00,
2013-07-14 20:40:00,68.0,64.3,27.63,NW,323,0.5,4.7,87,0.00,--,--,0.00,awk and wget,2013-07-15 00:40:00,
2013-07-14 20:45:00,67.7,64.4,27.63,North,8,2.2,4.1,89,0.00,--,--,0.00,awk and wget,2013-07-15 00:45:00,
2013-07-14 20:50:00,68.0,64.3,27.64,NNE,21,2.0,4.1,88,0.00,--,--,0.00,awk and wget,2013-07-15 00:50:00,
2013-07-14 20:55:00,67.8,64.2,27.64,ENE,64,1.7,4.1,88,0.00,--,--,0.00,awk and wget,2013-07-15 00:55:00,
2013-07-14 21:00:00,67.1,64.0,27.64,ENE,65,1.1,5.2,89,0.00,--,--,0.00,awk and wget,2013-07-15 01:00:00,
2013-07-14 21:10:00,66.0,63.4,27.64,East,86,1.0,5.2,91,0.00,--,--,0.00,awk and wget,2013-07-15 01:10:00,
2013-07-14 21:15:00,65.6,63.4,27.64,East,99,0.3,4.1,92,0.00,--,--,0.00,awk and wget,2013-07-15 01:15:00,
2013-07-14 21:20:00,65.3,63.2,27.64,East,99,0.9,4.1,92,0.00,--,--,0.00,awk and wget,2013-07-15 01:20:00,
2013-07-14 21:25:00,65.1,63.3,27.64,NNW,339,0.6,4.7,93,0.00,--,--,0.00,awk and wget,2013-07-15 01:25:00,
2013-07-14 21:30:00,65.1,63.3,27.64,ENE,77,2.4,4.7,93,0.00,--,--,0.00,awk and wget,2013-07-15 01:30:00,
2013-07-14 21:35:00,64.5,62.7,27.65,NE,56,1.4,4.7,93,0.00,--,--,0.00,awk and wget,2013-07-15 01:35:00,
2013-07-14 21:40:00,64.9,63.3,27.65,ENE,62,2.2,5.2,94,0.00,--,--,0.00,awk and wget,2013-07-15 01:40:00,
2013-07-14 21:45:00,64.7,63.0,27.65,ENE,67,1.7,5.5,94,0.00,--,--,0.00,awk and wget,2013-07-15 01:45:00,
2013-07-14 21:50:00,64.4,62.9,27.65,ESE,106,1.2,5.8,94,0.00,--,--,0.00,awk and wget,2013-07-15 01:50:00,
2013-07-14 22:00:00,64.3,63.0,27.65,NNE,32,1.5,5.8,95,0.00,--,--,0.00,awk and wget,2013-07-15 02:00:00,
2013-07-14 22:10:00,63.9,62.5,27.66,ESE,104,0.7,4.7,95,0.00,--,--,0.00,awk and wget,2013-07-15 02:10:00,
2013-07-14 22:15:00,63.6,62.1,27.66,ESE,103,0.7,4.2,95,0.00,--,--,0.00,awk and wget,2013-07-15 02:15:00,
2013-07-14 22:20:00,63.2,61.8,27.66,ESE,103,0.1,4.2,95,0.00,--,--,0.00,awk and wget,2013-07-15 02:20:00,
2013-07-14 22:25:00,63.2,62.0,27.66,ESE,103,0.1,4.1,96,0.00,--,--,0.00,awk and wget,2013-07-15 02:25:00,
2013-07-14 22:30:00,63.1,62.1,27.66,ESE,105,0.3,3.8,96,0.00,--,--,0.00,awk and wget,2013-07-15 02:30:00,
2013-07-14 22:35:00,63.0,61.9,27.66,NW,326,1.4,4.0,96,0.00,--,--,0.00,awk and wget,2013-07-15 02:35:00,
2013-07-14 22:40:00,62.7,61.8,27.66,NNW,334,1.7,4.0,96,0.00,--,--,0.00,awk and wget,2013-07-15 02:40:00,
2013-07-14 22:45:00,62.6,61.8,27.66,NNW,327,2.7,4.0,97,0.00,--,--,0.00,awk and wget,2013-07-15 02:45:00,
2013-07-14 22:50:00,62.5,61.7,27.66,NW,326,0.4,3.5,97,0.00,--,--,0.00,awk and wget,2013-07-15 02:50:00,
2013-07-14 23:00:00,62.5,61.8,27.66,NNW,331,1.7,2.9,97,0.00,--,--,0.00,awk and wget,2013-07-15 03:00:00,
2013-07-14 23:05:00,62.2,61.6,27.66,NNW,328,2.0,4.1,97,0.00,--,--,0.00,awk and wget,2013-07-15 03:05:00,
2013-07-14 23:10:00,62.2,61.6,27.66,NNW,328,1.9,4.1,97,0.00,--,--,0.00,awk and wget,2013-07-15 03:10:00,
2013-07-14 23:15:00,62.1,61.5,27.66,NNW,329,1.5,4.1,97,0.00,--,--,0.00,awk and wget,2013-07-15 03:15:00,
2013-07-14 23:20:00,62.0,61.4,27.66,NNW,332,1.4,4.5,97,0.00,--,--,0.00,awk and wget,2013-07-15 03:20:00,
2013-07-14 23:25:00,62.2,61.7,27.66,NNE,25,3.2,5.3,98,0.00,--,--,0.00,awk and wget,2013-07-15 03:25:00,
2013-07-14 23:30:00,61.9,61.3,27.66,North,8,3.5,7.4,98,0.00,--,--,0.00,awk and wget,2013-07-15 03:30:00,
2013-07-14 23:35:00,61.4,60.9,27.66,NNW,327,3.7,7.4,97,0.00,--,--,0.00,awk and wget,2013-07-15 03:35:00,
2013-07-14 23:40:00,61.5,61.0,27.66,ENE,57,3.1,7.4,98,0.00,--,--,0.00,awk and wget,2013-07-15 03:40:00,
2013-07-14 23:45:00,61.2,60.7,27.66,NE,55,5.8,6.4,98,0.00,--,--,0.00,awk and wget,2013-07-15 03:45:00,
2013-07-14 23:50:00,61.6,61.1,27.66,NE,54,3.6,5.4,98,0.00,--,--,0.00,awk and wget,2013-07-15 03:50:00,
2013-07-14 23:55:00,61.7,61.2,27.66,NE,44,3.1,5.4,98,0.00,--,--,0.00,awk and wget,2013-07-15 03:55:00,